Simultaneous Nadir Overpasses (SNOs) Predictions

Prediction of SNOs between METOP-A and TERRA Satellite Orbit:

Table of predicted SNOs for the next 14.0 days since TLE Epoch: 8/10/2012
Index Date (METOP-A) Time (METOP-A) METOP-A Lat,Lon Date (TERRA) Time (TERRA) TERRA Lat,Lon Distance(km) Time Diff (sec)
1 08/13/2012 02:08:00 81.31,-164.95 08/13/2012 02:08:27 81.31,-164.86 1.52 27
2 08/13/2012 02:58:40 -81.31, 2.65 08/13/2012 02:57:54 -81.31, 2.69 0.95 46
3 08/15/2012 21:42:22 81.31, -98.47 08/15/2012 21:42:42 81.32, -98.30 2.95 20
4 08/15/2012 22:33:02 -81.32, 69.14 08/15/2012 22:32:09 -81.32, 69.30 2.70 53
5 08/18/2012 17:16:45 81.31, -32.03 08/18/2012 17:17:00 81.32, -31.94 1.61 15
6 08/18/2012 18:07:25 -81.32, 135.57 08/18/2012 18:06:27 -81.32, 135.70 2.04 58
7 08/21/2012 12:51:08 81.31, 34.34 08/21/2012 12:51:20 81.30, 34.21 2.49 12
8 08/21/2012 13:41:47 -81.32,-157.65 08/21/2012 13:40:46 -81.33,-157.73 1.49 61
9 08/24/2012 08:25:29 81.32, 101.05 08/24/2012 08:25:39 81.32, 100.91 2.42 10




NCC Satellite Simultaneous Nadir Overpasses (SNOs) Prediction Service
